Location: Newark
(54.1833°N, 11.0667°E)
Time: 17:27:54
(UTC+00:00)

ISS - Visible Passes

Search period start: 28 January 2020 00:00
Search period end: 07 February 2020 00:00
Orbit: 415 x 423 km, 51.6° (Epoch: 29 January)

Date Brightness Start Highest point End Pass type
(mag) Time Alt. Az. Time Alt. Az. Time Alt. Az.
28 Jan -3.2 17:29:05 10° WSW 17:32:23 50° S 17:33:40 31° ESE visible
28 Jan -0.9 19:05:41 10° W 19:06:38 17° W 19:06:38 17° W visible
29 Jan -2.9 16:41:39 10° WSW 16:44:53 44° SSE 16:48:04 10° E visible
29 Jan -3.0 18:18:09 10° W 18:21:02 49° SW 18:21:02 49° SW visible
30 Jan -3.4 17:30:37 10° W 17:33:57 56° S 17:35:25 29° ESE visible
30 Jan -0.9 19:07:21 10° W 19:08:23 17° WSW 19:08:23 17° WSW visible
31 Jan -3.2 16:43:05 10° WSW 16:46:25 55° S 16:49:45 10° E visible
31 Jan -2.8 18:19:45 10° W 18:22:48 42° SSW 18:22:48 42° SSW visible
01 Feb -3.1 17:32:10 10° W 17:35:28 49° S 17:37:15 23° SE visible
01 Feb -0.8 19:09:09 10° W 19:10:13 16° WSW 19:10:13 16° WSW visible
02 Feb -3.1 16:44:36 10° W 16:47:56 54° S 16:51:15 10° ESE visible
02 Feb -2.2 18:21:26 10° W 18:24:23 28° SSW 18:24:43 27° SSW visible
03 Feb -2.4 17:33:45 10° W 17:36:53 35° SSW 17:39:17 15° SE visible
03 Feb -0.6 19:11:42 10° WSW 19:12:15 11° SW 19:12:15 11° SW visible
04 Feb -2.6 16:46:06 10° W 16:49:21 42° SSW 16:52:35 10° ESE visible
04 Feb -1.2 18:23:23 10° WSW 18:25:35 16° SW 18:26:56 13° S visible
05 Feb -1.4 17:35:28 10° W 17:38:09 22° SSW 17:40:48 10° SSE visible
06 Feb -1.7 16:47:41 10° W 16:50:39 28° SSW 16:53:36 10° SE visible
